South Lake Tahoe, CA

9:16 AM PDT on September 24, 2017 (GMT -0700)
Lake Tahoe

Weather History for KTVL - October, 2013

Change the Weather History Date:

Monday, October 7, 2013

  Actual Average Record
Temperature  
Mean Temperature 48 °F 48 °F  
Max Temperature 68 °F 66 °F 78 °F (1991)
Min Temperature 28 °F 30 °F 23 °F (1949)
Degree Days  
Heating Degree Days 17 17  
Month to date heating degree days 133 113  
Since 1 July heating degree days 561 739  
Cooling Degree Days 0 0  
Month to date cooling degree days 0 0  
Year to date cooling degree days 104 31  
Moisture  
Dew Point 14 °F    
Average Humidity 36    
Maximum Humidity 63    
Minimum Humidity 8    
Precipitation  
Precipitation 0.00 in - 1.36 in (1975)
Month to date precipitation 0.00  
Year to date precipitation 7.15  
Sea Level Pressure  
Sea Level Pressure 30.04 in    
Wind  
Wind Speed 4 mph (SSW)    
Max Wind Speed 18 mph    
Max Gust Speed 25 mph    
Visibility 10 miles    
Events      
T = Trace of Precipitation, MM = Missing Value Source: NWS Daily Summary

Daily Weather History Graph

Daily Weather History Graph

Search for Another Location

Airport or City:

Trip Planner

Search our weather history database for the weather conditions in past years. The results will help you decide how hot, cold, wet, or windy it might be!

Date:

Astronomy

Oct. 07, 2013 Rise Set
Actual Time 7:01 AM PDT 6:32 PM PDT
Civil Twilight 6:35 AM PDT 6:59 PM PDT
Nautical Twilight 6:04 AM PDT 7:30 PM PDT
Astronomical Twilight 5:33 AM PDT 8:01 PM PDT
Moon 9:55 AM PDT (10/7) 8:23 PM PDT (10/7)
Length of Visible Light 12h 24m
Length of Day
11h 30m
Waxing Crescent, 9% of the Moon is Illuminated
Oct 7
Waxing Crescent
Oct 11
First Quarter
Oct 18
Full
Oct 26
Last Quarter
Nov 3
New

Hourly Weather History & Observations

Time (PDT) Temp. Windchill Dew Point Humidity Pressure Visibility Wind Dir Wind Speed Gust Speed Precip Events Conditions
12:53 AM 35.1 °F - 19.9 °F 54% 30.14 in 10.0 mi Calm Calm - N/A   Clear
1:53 AM 32.0 °F - 19.9 °F 61% 30.13 in 10.0 mi Calm Calm - N/A   Clear
2:53 AM 30.0 °F 26.5 °F 19.9 °F 66% 30.12 in 10.0 mi South 3.5 mph - N/A   Clear
3:53 AM 30.9 °F - 19.0 °F 61% 30.10 in 10.0 mi Calm Calm - N/A   Clear
4:53 AM 30.0 °F - 19.0 °F 64% 30.10 in 10.0 mi Calm Calm - N/A   Clear
5:53 AM 30.0 °F 26.5 °F 19.0 °F 64% 30.11 in 10.0 mi South 3.5 mph - N/A   Clear
6:53 AM 28.9 °F 23.9 °F 18.0 °F 64% 30.13 in 10.0 mi South 4.6 mph - N/A   Clear
7:53 AM 28.9 °F 23.9 °F 18.0 °F 64% 30.16 in 10.0 mi SSW 4.6 mph - N/A   Clear
8:53 AM 43.0 °F 40.3 °F 18.0 °F 37% 30.12 in 10.0 mi South 4.6 mph - N/A   Clear
9:53 AM 55.0 °F - 15.1 °F 21% 30.08 in 10.0 mi Calm Calm - N/A   Clear
10:53 AM 63.0 °F - -0.0 °F 8% 30.05 in 10.0 mi SSW 6.9 mph - N/A   Clear
11:16 AM 62.6 °F - -0.4 °F 8% 30.15 in 10.0 mi Variable 5.8 mph - N/A   Partly Cloudy
11:53 AM 66.0 °F - 3.0 °F 8% 30.03 in 10.0 mi SSW 10.4 mph 24.2 mph N/A   Clear
12:53 PM 66.9 °F - 5.0 °F 9% 30.01 in 10.0 mi Variable 5.8 mph - N/A   Clear
1:53 PM 64.9 °F - 8.1 °F 11% 30.00 in 10.0 mi Variable 3.5 mph 18.4 mph N/A   Clear
2:53 PM 68.0 °F - 12.0 °F 11% 29.99 in 10.0 mi South 9.2 mph 19.6 mph N/A   Clear
3:53 PM 66.9 °F - 16.0 °F 14% 29.99 in 10.0 mi SSW 9.2 mph 16.1 mph N/A   Clear
4:53 PM 64.9 °F - 16.0 °F 15% 29.98 in 10.0 mi Variable 6.9 mph - N/A   Clear
5:53 PM 61.0 °F - 15.1 °F 17% 29.99 in 10.0 mi SSW 12.7 mph 17.3 mph N/A   Clear
6:53 PM 57.0 °F - 16.0 °F 20% 30.01 in 10.0 mi South 8.1 mph - N/A   Clear
7:53 PM 55.9 °F - 17.1 °F 22% 30.00 in 10.0 mi SSW 11.5 mph - N/A   Clear
8:53 PM 55.0 °F - 16.0 °F 22% 29.96 in 10.0 mi South 10.4 mph - N/A   Clear
9:53 PM 55.9 °F - 12.0 °F 18% 29.94 in 10.0 mi Calm Calm - N/A   Clear
10:53 PM 52.0 °F - 15.1 °F 23% 29.92 in 10.0 mi Calm Calm - N/A   Clear
11:53 PM 53.1 °F - 15.1 °F 22% 29.90 in 10.0 mi South 5.8 mph - N/A   Clear